Simultaneous Nadir Overpasses (SNOs) Predictions

Prediction of SNOs between NOAA-15 and METOP-C Satellite Orbit:

Table of predicted SNOs for the next 14.0 days since TLE Epoch: 2/15/2019
Index Date (NOAA-15) Time (NOAA-15) Lat,Lon (NOAA-15) SZA (NOAA-15 ) Date (METOP-C) Time (METOP-C) Lat,Lon (METOP-C) SZA (METOP-C ) Distance(km) Time Diff (sec)
1 02/23/2019 19:25:41 -80.75, 101.26 88.42 02/23/2019 19:24:33 -80.77, 101.23 88.43 2.25 68
2 02/23/2019 20:16:16 80.76, -91.52 91.57 02/23/2019 20:15:13 80.77, -91.43 91.57 2.11 63
3 02/23/2019 21:06:44 -80.75, 75.93 88.45 02/23/2019 21:05:55 -80.76, 75.76 88.47 3.13 49
4 02/23/2019 21:57:19 80.76,-116.85 91.54 02/23/2019 21:56:35 80.76,-116.90 91.52 0.90 44
5 02/23/2019 22:47:47 -80.75, 50.60 88.48 02/23/2019 22:47:16 -80.77, 50.65 88.47 2.12 31
6 02/23/2019 23:38:22 80.76,-142.18 91.51 02/23/2019 23:37:56 80.77,-142.01 91.53 3.10 26
7 02/24/2019 00:28:50 -80.76, 25.27 88.50 02/24/2019 00:28:38 -80.77, 25.18 88.51 1.82 12
8 02/24/2019 01:19:25 80.77,-167.50 91.49 02/24/2019 01:19:18 80.77,-167.48 91.49 0.37 7
9 02/24/2019 02:09:52 -80.76, -0.06 88.53 02/24/2019 02:09:58 -80.78, 0.06 88.51 2.74 6
10 02/24/2019 03:00:27 80.77, 167.17 91.46 02/24/2019 03:00:39 80.76, 167.06 91.44 2.44 12
11 02/24/2019 03:50:55 -80.77, -25.38 88.56 02/24/2019 03:51:20 -80.77, -25.40 88.55 0.63 25
12 02/24/2019 04:41:30 80.77, 141.85 91.43 02/24/2019 04:42:00 80.77, 141.94 91.45 1.65 30
13 02/24/2019 05:31:58 -80.77, -50.71 88.59 02/24/2019 05:32:42 -80.76, -50.87 88.59 2.87 44
14 02/24/2019 06:22:33 80.78, 116.52 91.40 02/24/2019 06:23:22 80.76, 116.47 91.40 1.62 49
15 02/24/2019 07:13:01 -80.77, -76.04 88.61 02/24/2019 07:14:03 -80.78, -75.98 88.59 1.03 62




NCC Satellite Simultaneous Nadir Overpasses (SNOs) Prediction Service
